Flag for Norway

Past Weather in Vennesla, Norway — Yesterday and Last 2 Weeks

Now
66 °F

Passing clouds.


Feels Like: 66 °F
Forecast: 68 / 48 °F
Wind: 8 mph from Southeast

Location: Kristiansand / Kjevik
Current Time: Sep 19, 2020 at 2:04:45 pm
Latest Report: Sep 19, 2020 at 1:20 pm
Visibility: N/A
Pressure30.27 "Hg
Humidity: 49%
Dew Point: 46 °F
Location of VenneslaLocation

Past Weather in Vennesla — Graph

°F

Vennesla Temperature Yesterday

Maximum temperature yesterday: 72 °F (at 3:50 pm)
Minimum temperature yesterday: 48 °F (at 12:50 am)
Average temperature yesterday: 59 °F

High & Low Weather Summary for the Past Weeks

 TemperatureHumidityPressure
High72 °F (Sep 18, 3:50 pm)100% (Sep 5, 5:50 am)30.51 "Hg (Sep 5, 5:50 am)
Low36 °F (Sep 17, 4:20 am)32% (Sep 16, 4:20 pm)29.65 "Hg (Sep 9, 6:20 am)
Average56 °F76%29.98 "Hg
* Reported Sep 4 12:20 pm — Sep 19 12:50 pm, Vennesla. Weather by CustomWeather, © 2020

Note: Actual official high and low records may vary slightly from our data, if they occured in-between our weather recording intervals... More about our weather records

Vennesla Weather History for the Previous 24 Hours

Scroll right to see more
 ConditionsComfort  
Time TempWeatherWind HumidityBarometerVisibility
12:50 pm
Sat, Sep 19
66 °FSunny.9 mph49%30.27 "Hg10 mi
12:20 pm66 °FPassing clouds.7 mph52%30.27 "HgN/A
11:50 am64 °FPassing clouds.7 mph52%30.27 "HgN/A
11:20 am64 °FSunny.9 mph60%30.27 "Hg10 mi
10:50 am63 °FSunny.7 mph68%30.27 "Hg10 mi
10:20 am59 °FSunny.5 mph72%30.27 "Hg10 mi
9:50 am55 °FPassing clouds.3 mph82%30.27 "HgN/A
9:20 am52 °FSunny.5 mph94%30.27 "Hg10 mi
8:50 am50 °FSunny.3 mph100%30.27 "Hg10 mi
8:20 am48 °FSunny.5 mph100%30.27 "Hg10 mi
7:50 am46 °FSunny.3 mph100%30.27 "Hg10 mi
7:20 am46 °FSunny.6 mph100%30.27 "Hg10 mi
6:50 am46 °FClear.7 mph93%30.27 "Hg10 mi
6:20 am46 °FClear.7 mph100%30.27 "Hg10 mi
5:50 am46 °FClear.7 mph100%30.27 "Hg10 mi
5:20 am46 °FCool.7 mph100%30.27 "HgN/A
4:50 am48 °FCool.8 mph94%30.27 "HgN/A
4:20 am48 °FCool.5 mph94%30.27 "HgN/A
3:50 am46 °FCool.5 mph100%30.27 "HgN/A
3:20 am48 °FCool.2 mph100%30.27 "HgN/A
2:50 am50 °FCool.3 mph94%30.27 "HgN/A
2:20 am50 °FCool.5 mph94%30.27 "HgN/A
1:50 am48 °FCool.2 mph100%30.27 "HgN/A
1:20 am50 °FCool.6 mph100%30.27 "HgN/A
12:50 am52 °FCool.No wind94%30.27 "HgN/A
12:20 am54 °FCool.2 mph88%30.27 "HgN/A
11:50 pm
Fri, Sep 18
54 °FCool.No wind94%30.27 "HgN/A
11:20 pm54 °FClear.No wind88%30.27 "Hg10 mi
10:50 pm57 °FClear.2 mph82%30.30 "Hg10 mi
10:20 pm61 °FPassing clouds.6 mph72%30.30 "HgN/A
9:50 pm63 °FPassing clouds.6 mph68%30.30 "HgN/A
9:20 pm61 °FClear.2 mph72%30.30 "Hg10 mi
8:50 pm63 °FPassing clouds.3 mph73%30.30 "HgN/A
8:20 pm64 °FClear.5 mph68%30.30 "Hg10 mi
7:50 pm64 °FPassing clouds.6 mph68%30.27 "HgN/A
7:20 pm66 °FPassing clouds.6 mph60%30.27 "HgN/A
6:50 pm68 °FPassing clouds.7 mph56%30.27 "HgN/A
6:20 pm70 °FPassing clouds.5 mph53%30.27 "HgN/A
5:50 pm70 °FPassing clouds.8 mph53%30.27 "HgN/A
5:20 pm70 °FPassing clouds.9 mph53%30.27 "HgN/A
4:50 pm72 °FPassing clouds.8 mph50%30.27 "HgN/A
4:20 pm72 °FPassing clouds.7 mph50%30.27 "HgN/A
3:50 pm72 °FPassing clouds.8 mph50%30.30 "HgN/A
3:20 pm70 °FPassing clouds.8 mph53%30.30 "HgN/A
2:50 pm70 °FPassing clouds.9 mph53%30.30 "HgN/A
2:20 pm70 °FPassing clouds.7 mph53%30.30 "HgN/A
Weather by CustomWeather, © 2020

See weather overview